SCP
0 0 0 0 0 0 0 0 0 0 0 0 0 0 0 0 0 0 0 0 0 0 0 0 0 0 0 0 0 0 0 0 0 0 0 0 0 0 0 0 0 0 0
0 0 0 0 0 0 0 0 0 0 0 0 0 0 0 0 0 0 0 0 0 0 0 0 0 0 0 0 0 0 0 0 0 0 0 0 0 0 0 0 0 0 0
0 0 0 0 0 0 0 0 0 0 0 0 0 0 0 0 0 0 0 0 0 0 0 0 0 0 0 0 0 0 0 0 0 0 0 0 0 0 0 0 0 0 0
0 0 0 0 0 0 0 0 0 0 0 0 0 0 0 0 0 0 0 0 0 0 0 0 0 0 0 0 0 0 0 0 0 0 0 0 0 0 0 0 0 0 0
0 0 0 0 0 0 0 0 0 0 0 0 0 0 0 0 0 0 0 0 0 0 0 0 0 0 0 0 0 0 0 0 0 0 0 0 0 0 0 0 0 0 0
0 0 0 0 0 0 0 0 0 0 0 0 0 0 0 0 0 0 0 0 0 0 0 0 0 0 0 0 0 0 0 0 0 0 0 0 0 0 0 0 0 0 0
0 0 0 0 0 0 0 0 0 0 0 0 0 0 0 0 0 0 0 0 0 0 0 0 0 0 0 0 0 0 0 0 0 0 0 0 0 0 0 0 0 0 0
0 0 0 0 0 0 0 0 0 0 0 0 0 0 0 0 0 0 0 0 0 0 0 0 0 0 0 0 0 0 0 0 0 0 0 0 0 0 0 0 0 0 0
0 0 0 0 0 0 0 0 0 0 0 0 0 0 0 0 0 0 0 0 0 0 0 0 0 0 0 0 0 0 0 0 0 0 0 0 0 0 0 0 0 0 0
0 0 0 0 0 0 0 0 0 0 0 0 0 0 0 0 0 0 0 0 0 0 0 0 0 0 0 0 0 0 0 0 0 0 0 0 0 0 0 0 0 0 0
0 0 0 0 0 0 0 0 0 0 0 0 0 0 0 0 0 0 0 0 0 0 0 0 0 0 0 0 0 0 0 0 0 0 0 0 0 0 0 0 0 0 0
0 0 0 0 0 0 0 0 0 0 0 0 0 0 0 0 0 0 0 0 0 0 0 0 0 0 0 0 0 0 0 0 0 0 0 0 0 0 0 0 0 0 0
0 0 0 0 0 0 0 0 0 0 0 0 0 0 0 0 0 0 0 0 0 0 0 0 0 0 0 0 0 0 0 0 0 0 0 0 0 0 0 0 0 0 0
0 0 0 0 0 0 0 0 0 0 0 0 0 0 0 0 0 0 0 0 0 0 0 0 0 0 0 0 0 0 0 0 0 0 0 0 0 0 0 0 0 0 0
0 0 0 0 0 0 0 0 0 0 0 0 0 0 0 0 0 0 0 0 0 0 0 0 0 0 0 0 0 0 0 0 0 0 0 0 0 0 0 0 0 0 0
0 0 0 0 0 0 0 0 0 0 0 0 0 0 0 0 0 0 0 0 0 0 0 0 0 0 0 0 0 0 0 0 0 0 0 0 0 0 0 0 0 0 0
0 0 0 0 0 0 0 0 0 0 0 0 0 0 0 0 0 0 0 0 0 0 0 0 0 0 0 0 0 0 0 0 0 0 0 0 0 0 0 0 0 0 0
0 0 0 0 0 0 0 0 0 0 0 0 0 0 0 0 0 0 0 0 0 0 0 0 0 0 0 0 0 0 0 0 0 0 0 0 0 0 0 0 0 0 0
0 0 0 0 0 0 0 0 0 0 0 0 0 0 0 0 0 0 0 0 0 0 0 0 0 0 0 0 0 0 0 0 0 0 0 0 0 0 0 0 0 0 0
0 0 0 0 0 0 0 0 0 0 0 0 0 0 0 0 0 0 0 0 0 0 0 0 0 0 0 0 0 0 0 0 0 0 0 0 0 0 0 0 0 0 0
0 0 0 0 0 0 0 0 0 0 0 0 0 0 0 0 0 0 0 0 0 0 0 0 0 0 0 0 0 0 0 0 0 0 0 0 0 0 0 0 0 0 0
0 0 0 0 0 0 0 0 0 0 0 0 0 0 0 0 0 0 0 0 0 0 0 0 0 0 0 0 0 0 0 0 0 0 0 0 0 0 0 0 0 0 0
0 0 0 0 0 0 0 0 0 0 0 0 0 0 0 0 0 0 0 0 0 0 0 0 0 0 0 0 0 0 0 0 0 0 0 0 0 0 0 0 0 0 0
0 0 0 0 0 0 0 0 0 0 0 0 0 0 0 0 0 0 0 0 0 0 0 0 0 0 0 0 0 0 0 0 0 0 0 0 0 0 0 0 0 0 0
0 0 0 0 0 0 0 0 0 0 0 0 0 0 0 0 0 0 0 0 0 0 0 0 0 0 0 0 0 0 0 0 0 0 0 0 0 0 0 0 0 0 0
0 0 0 0 0 0 0 0 0 0 0 0 0 0 0 0 0 0 0 0 0 0 0 0 0 0 0 0 0 0 0 0 0 0 0 0 0 0 0 0 0 0 0
Wind_Speed
2 2 3 2 2 2 2 2 3 5 6 6 7 7 6 7 6 5 5 11 13 13 13 12 12 12 11 11 11 11 11 11 10 10 10 9 9 8 7 7 7 7 7
2 3 3 2 2 2 2 3 5 5 5 5 6 7 6 5 6 5 5 7 12 12 12 12 12 12 12 11 11 11 11 11 11 10 10 10 9 8 8 8 7 7 7
3 3 3 2 2 2 3 4 5 4 5 5 5 6 6 6 5 5 5 4 5 11 13 13 13 13 13 13 12 12 11 11 10 10 10 10 9 9 8 8 8 8 7
4 3 3 2 2 3 3 3 4 4 4 4 4 5 5 4 6 6 5 5 4 5 9 14 14 14 14 14 14 13 13 12 12 11 11 11 10 9 9 8 8 8 8
5 4 3 2 3 3 3 3 4 3 4 4 4 4 4 4 4 6 6 6 6 5 5 9 14 15 15 15 14 13 13 13 13 12 12 12 11 10 10 9 8 8 8
5 3 3 4 4 3 3 4 4 4 3 2 4 5 4 3 4 4 5 5 5 6 5 6 5 9 15 15 15 14 13 13 13 13 13 13 13 13 12 11 9 9 9
4 3 3 3 4 3 3 3 3 4 2 2 3 3 3 4 4 3 3 4 5 5 5 6 4 4 6 13 14 14 14 13 13 13 13 13 14 13 13 13 11 10 9
4 3 3 3 3 3 3 3 3 2 1 1 1 2 2 2 3 3 3 4 4 4 5 6 6 6 5 4 9 14 14 13 13 13 13 13 13 13 13 14 13 13 12
3 3 3 3 3 3 2 2 2 2 1 1 1 2 2 2 1 2 3 4 4 4 4 4 6 6 7 6 5 10 14 13 13 13 14 14 13 14 14 14 15 14 14
2 2 2 3 3 2 3 2 2 2 2 1 2 2 2 3 2 1 1 2 4 4 4 5 6 6 6 5 8 11 14 13 13 14 14 14 14 15 15 15 15 15 15
2 2 2 2 3 3 3 3 3 3 2 2 1 1 2 2 2 3 2 1 2 3 3 4 4 5 5 5 5 9 13 13 13 14 14 14 14 14 15 15 14 14 14
1 2 2 2 3 3 3 3 3 3 2 3 2 2 2 2 1 2 2 2 2 2 3 3 4 4 4 4 7 11 11 12 12 13 13 14 14 14 14 14 14 14 14
2 2 2 2 3 3 3 3 2 2 2 3 2 2 3 2 2 2 2 1 2 1 2 3 2 3 4 3 4 8 9 10 11 12 12 12 13 13 13 13 14 14 13
2 3 3 3 3 3 3 3 2 2 2 3 3 3 2 2 2 2 2 2 2 1 2 2 2 3 3 3 4 5 5 8 9 10 10 11 11 12 12 13 13 13 13
3 4 4 4 3 3 3 3 2 2 3 3 2 3 2 2 2 2 2 2 2 2 1 1 1 2 2 3 4 3 3 6 7 8 8 9 9 10 10 11 11 12 12
4 4 4 4 4 3 3 3 3 2 3 2 2 4 3 2 2 2 2 2 2 3 2 1 1 2 2 3 4 3 3 6 6 6 6 7 7 8 8 9 9 10 10
4 4 4 4 3 3 3 3 3 3 3 2 2 3 3 2 2 2 2 2 2 3 3 1 1 2 3 3 2 1 2 2 2 4 4 5 5 6 6 7 7 8 9
3 3 3 3 3 3 3 3 3 2 2 2 2 3 2 2 2 2 1 2 2 2 3 2 1 1 2 2 1 1 1 2 1 2 3 2 3 4 4 5 5 6 7
4 4 4 3 3 3 3 3 2 2 2 2 3 3 2 2 2 1 1 2 1 2 2 2 1 1 1 1 2 1 2 1 0 1 2 1 1 2 2 3 4 5 5
4 4 4 4 3 3 3 2 2 3 2 2 2 3 3 3 1 1 2 2 2 2 2 2 1 1 0 1 1 0 1 1 1 1 1 1 0 0 1 2 3 4 5
4 4 4 4 3 3 2 2 2 3 3 3 3 3 4 5 6 4 3 2 2 1 1 2 1 1 0 1 0 1 0 1 2 1 1 1 0 1 1 1 2 3 4
3 4 4 4 4 3 5 5 3 2 2 3 3 3 4 4 5 5 6 5 4 2 2 1 1 1 1 0 0 0 0 1 2 2 1 2 0 1 2 1 1 2 3
3 3 4 4 4 3 5 4 3 1 1 2 2 2 2 3 3 2 2 3 2 2 2 2 1 1 1 0 0 1 1 0 2 2 1 2 1 1 1 1 2 3 3
3 3 3 4 4 3 5 4 2 1 1 1 2 2 2 2 1 2 2 2 1 0 1 1 2 1 1 0 1 1 1 1 1 2 1 1 2 2 2 1 4 4 4
4 4 3 4 5 4 4 3 2 1 1 1 2 2 2 2 3 3 2 2 1 0 1 3 2 1 2 2 2 2 2 1 2 2 1 0 2 3 2 2 3 4 5
4 4 4 4 5 4 5 4 3 1 1 1 2 2 3 3 3 2 1 2 2 1 0 0 0 1 0 1 1 1 1 0 1 2 2 1 2 3 3 2 1 2 3
Wind_Direction
61 73 83 58 52 75 79 54 60 60 54 56 59 65 68 73 79 77 69 67 65 64 64 65 63 62 61 64 65 66 67 66 64 61 58 54 53 56 58 55 53 55 60
64 62 76 70 54 67 77 78 81 75 66 63 59 59 59 66 77 87 85 70 66 63 63 64 63 61 61 62 62 64 66 65 64 61 55 52 51 56 57 52 52 55 59
66 61 70 72 62 63 68 71 76 77 82 74 65 64 57 53 63 76 90 83 72 63 63 63 63 60 59 59 60 60 63 61 60 59 56 53 52 58 56 50 46 51 55
70 55 49 64 72 68 69 80 80 78 75 71 67 63 60 50 53 66 73 78 75 71 63 63 60 58 57 58 59 59 59 59 58 55 53 52 50 53 51 47 47 51 52
63 65 44 44 63 65 66 77 80 85 87 85 88 78 64 52 50 63 66 68 71 72 69 64 62 59 56 55 54 55 56 58 59 57 54 51 50 51 48 46 50 52 52
54 61 57 45 52 63 62 70 75 75 85 91 91 89 83 74 57 55 62 65 65 70 68 66 61 59 56 53 51 51 54 56 57 56 54 53 52 49 48 50 51 53 55
45 57 58 51 58 65 68 82 82 81 86 90 85 80 67 73 76 66 60 70 66 62 63 64 62 60 56 52 49 50 51 55 57 55 54 53 52 49 46 45 48 53 57
48 57 68 69 77 72 60 66 78 73 73 102 119 125 100 44 37 71 69 67 68 63 61 64 61 65 62 57 52 52 49 51 54 54 53 52 50 48 46 44 50 55 58
61 49 58 73 83 93 87 77 83 83 53 350 48 100 120 126 104 46 67 71 64 60 56 56 59 61 67 60 55 48 51 49 51 51 53 53 51 48 47 47 51 55 56
85 58 65 75 80 79 83 64 68 64 63 13 5 29 74 115 124 114 40 66 75 66 55 56 55 57 65 67 63 58 54 50 50 51 52 51 50 49 49 50 50 52 53
109 91 69 79 86 85 84 69 61 48 50 52 39 29 39 45 65 112 115 86 64 65 68 63 61 57 59 66 67 63 58 53 51 49 49 49 47 47 48 48 49 49 50
101 104 96 80 83 82 80 77 77 66 52 48 44 53 66 64 53 80 107 117 104 80 77 69 70 65 61 63 66 69 65 58 54 52 50 48 46 44 44 45 45 44 44
122 118 102 90 83 79 84 77 74 74 74 65 54 54 55 57 64 82 99 110 108 117 89 67 73 78 74 74 69 70 71 63 58 55 51 49 46 43 41 41 41 40 39
135 126 110 96 90 87 86 77 70 62 68 73 70 69 65 49 52 79 106 110 103 83 85 93 71 81 77 84 77 75 76 70 63 59 53 50 48 44 41 39 38 37 36
133 124 123 116 107 99 96 96 88 74 62 57 64 73 74 59 49 51 72 96 119 112 74 99 78 105 102 94 87 78 88 83 74 64 56 50 48 45 42 40 38 36 34
130 126 123 126 121 114 105 97 99 102 95 74 65 67 60 55 51 46 45 43 74 118 110 91 104 120 105 99 99 89 90 101 85 73 59 49 45 44 43 42 38 36 32
140 140 137 131 130 127 123 114 112 101 108 105 93 92 78 65 64 48 39 51 58 89 109 89 79 93 95 90 87 91 105 113 97 89 69 51 42 40 40 40 37 33 29
140 140 137 128 126 123 123 123 125 117 117 121 112 102 100 82 69 52 52 60 67 89 112 122 99 80 94 113 109 85 86 100 108 118 106 76 49 39 38 37 35 31 25
144 135 129 125 124 120 114 123 126 121 110 103 102 98 93 89 90 66 68 66 66 80 95 114 116 83 75 76 66 27 28 14 36 124 139 133 70 44 34 30 36 27 18
144 139 136 130 127 124 121 119 119 115 111 97 90 90 86 86 84 92 78 68 74 82 91 103 105 69 72 65 79 17 346 330 318 338 31 153 169 350 14 14 14 7 5
129 127 128 124 116 110 93 88 115 127 131 123 109 99 90 86 77 76 81 70 71 81 101 107 109 69 39 41 324 250 287 287 299 317 322 270 214 253 262 305 326 346 353
120 120 121 120 117 108 94 75 67 76 118 128 127 129 128 111 100 94 92 87 86 99 117 116 137 167 226 210 280 359 337 354 315 311 335 294 233 241 239 217 276 313 318
138 131 129 121 117 115 116 99 73 59 78 107 123 130 125 121 133 141 122 104 72 66 118 142 160 213 186 218 104 328 306 282 254 280 9 300 300 287 275 243 249 268 291
155 146 142 135 127 134 138 135 138 158 131 113 122 129 129 120 98 103 113 108 113 160 184 152 157 191 133 93 167 210 238 303 305 325 42 293 309 302 299 268 251 255 282
151 151 150 142 137 143 147 145 152 177 150 128 95 85 104 110 88 84 121 135 119 131 133 126 132 124 69 41 46 49 20 19 316 304 326 297 304 309 290 268 264 257 271
154 155 155 154 153 150 154 150 165 178 155 140 121 100 90 116 107 99 141 154 163 212 145 53 354 327 334 359 10 139 176 237 289 300 317 350 317 338 314 293 293 290 281